METAR Formatted Surface Weather Observation
Issued by NWS

Home | Current Version | Previous Version | Text Only | Print | Product List | Glossary On
Versions: 1 2 3 4 5 6 7 8 9 10 11 12 13 14 15 16 17 18 19 20 21 22 23 24 25 26 27 28 29 30 31 32 33 34 35 36 37 38 39 40 41 42 43 44 45 46 47 48 49 50
000
SAUS45 KSLC 072220
MTRU16
METAR KU16 072158Z AUTO 30019G23KT 10SM CLR 31/07 A2994
RMK AO2 TSB10E52 SLP764 T03060072 $
07/07/15 16:06:26  SPECI KU16 072206Z AUTO 30011G23KT 10SM CLR 30/07 A2995
RMK AO2 WSHFT 2149 $



USA.gov is the U.S. government's official web portal to all federal, state and local government web resources and services.